Blackpool, United Kingdom

7:15 PM GMT on February 22, 2017 (GMT +0000)
Blackpool

Weather History for EGNH - September, 2012

Change the Weather History Date:

Friday, September 14, 2012

  Actual Average Record
Temperature  
Mean Temperature 58 °F -  
Max Temperature 60 °F 58 °F 77 °F (2016)
Min Temperature 57 °F 49 °F 35 °F (1996)
Degree Days  
Heating Degree Days 6    
Growing Degree Days 8 (Base 50)    
Moisture  
Dew Point 50 °F    
Average Humidity 73    
Maximum Humidity 89    
Minimum Humidity 56    
Precipitation  
Precipitation 0.01 in - - ()
Sea Level Pressure  
Sea Level Pressure 29.85 in    
Wind  
Wind Speed 25 mph ()    
Max Wind Speed 33 mph    
Max Gust Speed 44 mph    
Visibility 6.2 miles    
Events Rain    
Averages and records for this station are not official NWS values.
T = Trace of Precipitation, MM = Missing Value Source: Averaged Metar Reports

Daily Weather History Graph

Daily Weather History Graph

Search for Another Location

Airport or City:

Trip Planner

Search our weather history database for the weather conditions in past years. The results will help you decide how hot, cold, wet, or windy it might be!

Date:

Astronomy

Sep. 14, 2012 Rise Set
Actual Time 6:44 AM BST 7:29 PM BST
Civil Twilight 6:08 AM BST 8:05 PM BST
Nautical Twilight 5:25 AM BST 8:47 PM BST
Astronomical Twilight 4:39 AM BST 9:33 PM BST
Moon 4:43 AM BST (9/14) 6:21 PM BST (9/14)
Length of Visible Light 13h 56m
Length of Day
12h 45m
Waning Crescent, 3% of the Moon is Illuminated
Sep 14
Waning Crescent
Sep 16
New
Sep 22
First Quarter
Sep 30
Full
Oct 8
Last Quarter

Hourly Weather History & Observations

Time (BST) Temp. Dew Point Humidity Pressure Visibility Wind Dir Wind Speed Gust Speed Precip Events Conditions
12:50 AM 60 °F 55 °F 77%  in - WSW 31.1 mph - -  
3:50 AM 58 °F 56 °F 89%  in - WSW 31.1 mph - -  
6:20 AM 57.2 °F 50.0 °F 77% 29.74 in 6.2 mi West 29.9 mph - N/A   Partly Cloudy
6:50 AM 57 °F 49 °F 68%  in - West 32.2 mph - -  
6:50 AM 57.2 °F 50.0 °F 77% 29.74 in 6.2 mi West 32.2 mph - N/A   Partly Cloudy
7:20 AM 57.2 °F 51.8 °F 82% 29.74 in 6.2 mi West 31.1 mph - N/A   Partly Cloudy
7:50 AM 59.0 °F 50.0 °F 72% 29.74 in 6.2 mi West 32.2 mph - N/A   Scattered Clouds
8:20 AM 57.2 °F 51.8 °F 82% 29.77 in 6.2 mi West 31.1 mph - N/A   Partly Cloudy
8:50 AM 57.2 °F 51.8 °F 82% 29.77 in 6.2 mi West 29.9 mph - N/A Rain Light Rain Showers
9:20 AM 57.2 °F 53.6 °F 88% 29.77 in 6.2 mi West 33.4 mph - N/A   Scattered Clouds
9:50 AM 59 °F 49 °F 62%  in - WNW 31.1 mph - -  
9:50 AM 59.0 °F 50.0 °F 72% 29.77 in 6.2 mi WNW 33.4 mph - N/A   Partly Cloudy
10:20 AM 59.0 °F 50.0 °F 72% 29.80 in 6.2 mi WNW 32.2 mph 43.7 mph N/A   Scattered Clouds
10:50 AM 59.0 °F 51.8 °F 77% 29.80 in 6.2 mi West 29.9 mph - N/A   Partly Cloudy
11:20 AM 59.0 °F 51.8 °F 77% 29.80 in 6.2 mi West 29.9 mph - N/A   Partly Cloudy
11:50 AM 59.0 °F 50.0 °F 72% 29.83 in 6.2 mi West 29.9 mph - N/A   Partly Cloudy
12:20 PM 59.0 °F 50.0 °F 72% 29.83 in 6.2 mi WNW 28.8 mph 40.3 mph N/A   Partly Cloudy
12:50 PM 59 °F 47 °F 56%  in - WNW 24.2 mph - -  
12:50 PM 59.0 °F 48.2 °F 67% 29.86 in 6.2 mi WNW 25.3 mph - N/A   Partly Cloudy
1:20 PM 59.0 °F 48.2 °F 67% 29.86 in 6.2 mi WNW 24.2 mph - N/A   Partly Cloudy
1:50 PM 59.0 °F 50.0 °F 72% 29.89 in 6.2 mi WNW 20.7 mph - N/A   Scattered Clouds
2:20 PM 59.0 °F 50.0 °F 72% 29.86 in 6.2 mi WNW 26.5 mph - N/A   Scattered Clouds
2:50 PM 59.0 °F 50.0 °F 72% 29.89 in 6.2 mi West 24.2 mph - N/A   Scattered Clouds
3:20 PM 59.0 °F 50.0 °F 72% 29.89 in 6.2 mi WNW 26.5 mph - N/A   Scattered Clouds
3:50 PM 58 °F 50 °F 68%  in - WNW 20.7 mph - -  
3:50 PM 59.0 °F 51.8 °F 77% 29.89 in 6.2 mi WNW 23.0 mph - N/A Rain Rain Showers
4:20 PM 59.0 °F 51.8 °F 77% 29.89 in 6.2 mi WNW 23.0 mph 34.5 mph N/A   Scattered Clouds
4:50 PM 59.0 °F 51.8 °F 77% 29.92 in 6.2 mi WNW 20.7 mph - N/A   Scattered Clouds
5:20 PM 59.0 °F 50.0 °F 72% 29.92 in 6.2 mi WNW 20.7 mph - N/A   Scattered Clouds
5:50 PM 59.0 °F 50.0 °F 72% 29.92 in 6.2 mi WNW 19.6 mph - N/A   Scattered Clouds
6:20 PM 59.0 °F 50.0 °F 72% 29.92 in 6.2 mi WNW 23.0 mph 35.7 mph N/A   Scattered Clouds
6:50 PM 58 °F 49 °F 64%  in - WNW 19.6 mph - -  
6:50 PM 59.0 °F 50.0 °F 72% 29.95 in 6.2 mi WNW 19.6 mph - N/A   Scattered Clouds
7:20 PM 59.0 °F 50.0 °F 72% 29.95 in 6.2 mi NW 16.1 mph - N/A   Mostly Cloudy
7:50 PM 59.0 °F 50.0 °F 72% 29.98 in 6.2 mi NW 15.0 mph - N/A   Mostly Cloudy
8:50 PM 59.0 °F 50.0 °F 72% 29.98 in 6.2 mi NW 16.1 mph - N/A   Mostly Cloudy
9:50 PM 58 °F 48 °F 59%  in - WNW 16.1 mph - -